Regional Weather Roundup
Issued by NWS Boston, MA

Home | Current Version | Previous Version | Text Only | Print | Product List | Glossary On
Versions: 1 2 3 4 5 6 7 8 9 10 11 12 13 14 15 16 17 18 19 20 21 22 23 24 25 26 27 28 29 30 31 32 33 34 35 36 37 38 39 40 41 42 43 44 45 46 47 48
000
ASUS41 KBOX 212010
RWRBOX

REGIONAL WEATHER ROUNDUP
NATIONAL WEATHER SERVICE TAUNTON MA
300 PM EST FRI NOV 21 2014

NOTE:  "FAIR" INDICATES FEW OR NO CLOUDS BELOW 12,000 FEET WITH NO
SIGNIFICANT WEATHER AND/OR OBSTRUCTIONS TO VISIBILITY.  THE FOLLOWING
OBSERVATION LOCATIONS DO NOT REPORT PRESENT WEATHER...PROVINCETOWN...
SMITHFIELD...BLOCK ISLAND...KEENE...AND OXFORD.

MAZALL-212100-
EASTERN MASSACHUSETTS

CITY           SKY/WX    TMP DP  RH WIND       PRES   REMARKS
BOSTON         MOSUNNY   34   8  33 W20G28    30.19R WCI  23
BEVERLY        MOSUNNY   33   7  33 NW16G26   30.18R WCI  23
LAWRENCE       PTSUNNY   32   8  36 W21G26    30.20R WCI  20
BEDFORD        MOSUNNY   32   7  35 W21G32    30.19R WCI  20
BLUE HILL        N/A     31   8  38 NW18G31   30.14R WCI  19
NORWOOD        MOSUNNY   34   8  33 NW15G25   30.20R WCI  24
MARSHFIELD     SUNNY     36  10  35 NW12G23   30.20R WCI  27
PLYMOUTH       MOSUNNY   34   9  35 W18G26    30.18R WCI  23
TAUNTON        MOSUNNY   35   8  32 W14G24    30.20R WCI  26
NEW BEDFORD    SUNNY     35   9  33 NW13G28   30.19R WCI  26
$$

MAZALL-212100-
CAPE COD AND THE ISLANDS

CITY           SKY/WX    TMP DP  RH WIND       PRES   REMARKS
FALMOUTH       SUNNY     34   9  35 W15G23    30.18R WCI  24
HYANNIS        MOSUNNY   37   9  31 NW16G25   30.16R WCI  28
CHATHAM        FAIR      34  11  38 NW9G22    30.16R WCI  27
PROVINCETOWN   PTSUNNY   36  12  38 NW24G31   30.17R WCI  24
NANTUCKET      SUNNY     36  12  37 W22G28    30.18R WCI  25
MARTHAS VNYRD  MOSUNNY   35  10  35 NW14G24   30.19R WCI  26
$$

MAZALL-212100-
CENTRAL AND WESTERN MASSACHUSETTS

CITY           SKY/WX    TMP DP  RH WIND       PRES   REMARKS
WORCESTER      PTSUNNY   28   8  43 NW16      30.17R WCI  16
FITCHBURG      SUNNY     33   9  36 NW20G31   30.20R WCI  21
ORANGE         PTSUNNY   30  11  45 W14G31    30.21R WCI  19
SPRINGFIELD    MOSUNNY   33  10  39 NW17G23   30.25R WCI  22
WESTFIELD      MOSUNNY   32   9  38 NW22G31   30.25R WCI  19
NORTH ADAMS    PTSUNNY   30   7  37 W12G22    30.24R WCI  20
PITTSFIELD     PTSUNNY   26   8  46 W18G30    30.22R WCI  13
$$

RIZALL-212100-
RHODE ISLAND

CITY           SKY/WX    TMP DP  RH WIND       PRES   REMARKS
PROVIDENCE     MOSUNNY   35  10  35 NW18G25   30.22R WCI  24
NEWPORT        MOSUNNY   36  10  34 NW10G26   30.20R WCI  28
BLOCK ISLAND   MOSUNNY   36  10  35 NW14G26   30.23R WCI  27
SMITHFIELD     MOSUNNY   32   7  34 NW12G23   30.19R WCI  23
WESTERLY       SUNNY     35   7  31 NW14G30   30.25R WCI  26
$$

CTZALL-212100-
CONNECTICUT

CITY           SKY/WX    TMP DP  RH WIND       PRES   REMARKS
BRADLEY INTL   MOSUNNY   35   9  33 NW16G26   30.26R WCI  25
HARTFORD       MOSUNNY   33  10  38 W15G23    30.29R WCI  23
BRIDGEPORT     MOSUNNY   37  10  32 NW14G25   30.30R WCI  28
DANBURY        SUNNY     33   6  32 W8G22     30.29R WCI  26
GROTON         MOSUNNY   35   9  33 NW20G32   30.25R WCI  24
NEW HAVEN      MOSUNNY   38  11  32 NW12G18   30.29R WCI  30
CHESTER        FAIR      34   9  35 NW9G25    30.26R WCI  26
MERIDEN        SUNNY     34   7  32 NW15G35   30.29R WCI  24
WILLIMANTIC    SUNNY     33  10  38 NW14G23   30.25R WCI  23
OXFORD         MOSUNNY   32   7  34 NW15G24   30.27R WCI  22
$$

MEZ002-015-021-024-NHZ003-005-008-011-012-014-VTZ005-008-212100-
NORTHERN NEW ENGLAND

CITY           SKY/WX    TMP DP  RH WIND       PRES   REMARKS
PORTLAND ME    PTCLDY    32   7  35 NW22G28   30.13R WCI  19
BANGOR ME      PTCLDY    28   7  41 NW18G32   30.05R WCI  15
CONCORD NH     MOSUNNY   30   6  36 NW22G28   30.18R WCI  17
MANCHESTER NH  MOSUNNY   31   8  38 NW12G22   30.18R WCI  22
NASHUA NH      MOSUNNY   32   9  38 N20G30    30.20R WCI  20
PORTSMOUTH NH  MOSUNNY   32   8  37 W16G28    30.15R WCI  21
JAFFREY NH     MOSUNNY   27   6  41 W13G21    30.17R WCI  16
KEENE NH       FAIR      30   7  37 W10G21    30.21R WCI  21
BURLINGTON VT  MOSUNNY   29   3  33 NW12G20   30.25R WCI  19
MT. WASHINGTON SNOW      -4  -4 100 NW68G75     N/A  VSB 0   WCI -40
$$

NYZ052-076-212100-
EASTERN NEW YORK

CITY           SKY/WX    TMP DP  RH WIND       PRES   REMARKS
ALBANY         MOSUNNY   31   5  33 W20G26    30.32R WCI  19
NEW YORK CITY  MOSUNNY   36  11  35 NW24G30   30.32R WCI  24
$$

ANZALL-212100-
MARINE OBSERVATIONS

STATION/POSITION TIME  TEMP    WIND        PRES    VSBY  WAVE
                       AIR SEA DIR/SP/G                  HT/PER
                 (UTC) (F)     (DEG/KT/KT) (MB)    (MI)  (FT/S)
BOSTON BUOY      1950   34 50  320/ 19/ 23 1021.7R         4/ 4
BUZZARDS BAY     1900          300/ 23/ 26 1022.3R
NANTUCKET SOUND  1950   36 46  310/ 17/ 25 1021.2R         3/ 5
MASS BAY-STELLWA 1904   34 51  310/ 23/ 27   N/A    1 3/4  3/ 4
ISLE OF SHOALS   2000   31     300/ 27/ 29 1020.3R
S OF BLOCK IS    1938      56                N/A           7/ 7
$$

......................KEY.........................
  SKY/WX - SKY CONDITION/PRESENT WEATHER
  TMP    - TEMPERATURE IN FAHRENHEIT
  DWPT   - DEWPOINT IN FAHRENHEIT
  RH     - RELATIVE HUMIDITY IN PERCENT
  WIND   - DIRECTION AND SPEED IN MPH
  PRES   - MEAN SEA LEVEL PRESSURE IN INCHES OF HG
  WCI    - WIND CHILL INDEX
  VSB    - VISIBILITY IN MILES
  HX     - HEAT INDEX
  TC     - TEMPERATURE IN CELSIUS
  VRB    - VARIABLE WIND DIRECTION
  N/A    - NOT AVAILABLE



USA.gov is the U.S. government's official web portal to all federal, state and local government web resources and services.